User: anonymous   Login
Location: Caltech
(34.1382°N, 118.1253°W)
Time: 00:41:18
(UTC-07:00)
Language:

ASTRO E2 - Orbit

View from above orbital plane
View from above orbital plane
View from above satellite
View from above satellite

Ground track
Ground track

The orbit data is extracted from the following two-line orbital elements,

1 28773U 05025A   14298.80218637  .00009497  00000-0  56647-3 0  3970
2 28773 031.3839 058.0634 0005604 048.8045 084.3456 15.09918803510949
Epoch (UTC): 25 October 2014 19:15:08
Eccentricity: 0.0005604
inclination: 31.3839°
perigee height: 532 km
apogee height: 540 km
right ascension of ascending node: 58.0634°
argument of perigee: 48.8045°
revolutions per day: 15.09918803
mean anomaly at epoch: 84.3456°
orbit number at epoch: 51094

The dashed part of the orbit path shows where the satellite is in the earth's shadow,  

DLR